DMSP 5D-2 F13 DEB, 40403

Orbit data source: Space-Track

DMSP 5D-2 F13 DEB, 40403 is space debris in SSO originally from a launch on Fri, 24 Mar 1995 UTC launched from the Air Force Western Test Range (AFWTR). Debris objects in space refer to the collection of defunct objects orbiting the Earth. Examples of debris include non-operational satellites, rocket bodies, and fragments generated from explosions, collisions, or faulty payload assembly.

Loading next visibility...
Identifier
40403, 1995-015Q
Orbit
SSO
Country
Flag of USUS
Related business
Manufacturer
Unknown
Mission
Spacecraft
Bus & Motor
Unknown
Mass
Unknown
Launch date (UTC)
1995-03-24 (31 years ago)
Launch vehicle
Unknown
Launch site
Air Force Western Test Range (AFWTR)
Object type
Payload
Rocket body
Debris
Shape & HBR
Unknown shape, 0.1 m
Radar Cross Section
Medium (>0.1 m² and <1 m²)

Expand to show TLE details & history
Last TLE update: 2 days ago

TLE from 2 days ago
0 DMSP 5D-2 F13 DEB
1 40403U 95015Q   26171.00381275  .00001684  00000-0  65352-3 0  9997
2 40403  98.6661 198.4064 0012393  24.1788 335.9974 14.31234575587183
Epoch: 2026-06-20T00:05Z
TLE epoch observation values (Epoch: 2026-06-20T00:05:29.421Z)
Latitude
-0.00004°
Longitude
-71.19085°
Altitude
782.426 km
Speed
7.467 km/s
True Right ascension
13h 13m 37s
True Declination
0° 00' 00"
Sunlit
Object was in daylight at epoch
Visualization orbit readout
Latitude
Unknown
Longitude
Unknown
Altitude
Unknown
Speed
Unknown
Apparent Right ascension
Unknown
Apparent Declination
Unknown
Sunlit
N/A
Visualization observer readout
Local Sidereal Time
21:35:16
Azimuth
Unknown
Elevation
Unknown
Doppler factor
Unknown
Orbital elements
Apogee altitude
793.626 km
Perigee altitude
775.872 km
Semi-major axis
7,162.886 km
Eccentricity
0.00124
Inclination
98.6661°
RAAN
198.4064°
Arg. of periapsis
24.1788°
True anomaly
335.93955°
Mean anomaly
335.9974°
Eccentric anomaly
335.96848°
Mean motion
3.58023 °/min
Orbital period
100.55 mins
BSTAR
0.00065352

Documentation

Showing up to 5 results
|